This is the latest recevied weather packets stored in our database for station/object K5OLV. If no packets are shown the sender has not sent any weather packets the latest 10 day(s).
| Time | Temp. | Humidity | Pressure | Rain* | Wind** | Luminosity | Snow |
|---|---|---|---|---|---|---|---|
| 1777166463 | 17.22° C | 98% | 1007.6 hPa | 0 mm | - | 0 W/m² | - |
| 1777166158 | 17.22° C | 98% | 1007.7 hPa | 0 mm | - | 0 W/m² | - |
| 1777165856 | 17.22° C | 98% | 1007.7 hPa | 0 mm | - | 0 W/m² | - |
| 1777165554 | 17.22° C | 98% | 1007.8 hPa | 0 mm | - | 0 W/m² | - |
| 1777165249 | 17.78° C | 98% | 1007.8 hPa | 0 mm | - | 0 W/m² | - |
| 1777164944 | 17.78° C | 98% | 1007.6 hPa | 0 mm | - | 0 W/m² | - |
| 1777164644 | 17.78° C | 97% | 1008 hPa | 0 mm | - | 0 W/m² | - |
| 1777164343 | 17.78° C | 97% | 1007.8 hPa | 0 mm | - | 0 W/m² | - |
| 1777164038 | 17.78° C | 97% | 1007.8 hPa | 0 mm | - | 0 W/m² | - |
| 1777163738 | 17.78° C | 97% | 1008.1 hPa | 0 mm | - | 0 W/m² | - |
| 1777163432 | 17.78° C | 97% | 1007.7 hPa | 0 mm | - | 0 W/m² | - |
| 1777163128 | 17.78° C | 97% | 1007.8 hPa | 0 mm | - | 0 W/m² | - |
| 1777162825 | 17.78° C | 97% | 1007.8 hPa | 0 mm | - | 0 W/m² | - |
| 1777162520 | 17.78° C | 97% | 1007.5 hPa | 0 mm | - | 2 W/m² | - |
| 1777162214 | 18.33° C | 97% | 1007.6 hPa | 0 mm | - | 3 W/m² | - |
| 1777161909 | 18.33° C | 96% | 1007.5 hPa | 0 mm | - | 6 W/m² | - |
| 1777161605 | 18.33° C | 96% | 1007.4 hPa | 0 mm | - | 14 W/m² | - |
| 1777161301 | 18.33° C | 96% | 1007.5 hPa | 0 mm | - | 20 W/m² | - |
| 1777160997 | 18.33° C | 96% | 1007 hPa | 0 mm | - | 34 W/m² | - |
| 1777160693 | 18.89° C | 96% | 1007.2 hPa | 0 mm | - | 45 W/m² | - |
| 1777160389 | 18.89° C | 96% | 1007 hPa | 0 mm | - | 55 W/m² | - |
| 1777160085 | 18.89° C | 96% | 1007.1 hPa | 0 mm | - | 48 W/m² | - |
| 1777159781 | 18.89° C | 96% | 1007.1 hPa | 0 mm | - | 24 W/m² | - |
| 1777159478 | 18.89° C | 96% | 1007.1 hPa | 0 mm | - | 29 W/m² | - |
| 1777159174 | 18.89° C | 96% | 1006.8 hPa | 0 mm | - | 49 W/m² | - |
* Rain latest hour (hover to see other rain measurements)
** Current wind speed in m/s (hover to see current wind gust speed)